Regional Weather Roundup
Issued by NWS

Home | Current Version | Previous Version | Graphics & Text | Print | Product List | Glossary On
Versions: 1 2 3 4 5 6 7 8 9 10 11 12 13 14 15 16 17 18 19 20 21 22 23 24 25 26 27 28 29 30 31 32 33 34 35 36 37 38 39 40 41 42 43 44 45 46 47 48 49 50
000
ASUS45 KBOU 240307
RWRCO

WEATHER ROUNDUP FOR COLORADO
NATIONAL WEATHER SERVICE DENVER/BOULDER CO
900 PM MDT FRI JUN 23 2017

NOTE: "FAIR" INDICATES FEW OR NO CLOUDS BELOW 12000 FEET WITH NO
SIGNIFICANT WEATHER AND/OR OBSTRUCTIONS TO VISIBILITY.

COZ001>005-013-030-031-240400-
...NORTHWEST COLORADO...

CITY           SKY/WX    TMP DP  RH WIND       PRES   REMARKS
CRAIG          FAIR      66  41  40 CALM      30.19R
HAYDEN         FAIR      70  34  26 NE5       30.22R
MEEKER         FAIR      66  33  29 CALM      30.20R
RABBIT EARS PA FAIR      50  28  43 W10       30.50S
STEAMBOAT SPGS FAIR      63  38  39 SE3       30.24R
WALDEN         FAIR      55  27  33 N8        30.35R
$$

COZ006>008-011-240400-
...WEST CENTRAL VALLEYS...

CITY           SKY/WX    TMP DP  RH WIND       PRES   REMARKS
GRAND JUNCTION FAIR      81  10   7 NE9       30.02R
MONTROSE       FAIR      76  26  15 CALM      30.12R
EAGLE          FAIR      74  24  15 NE5       30.23R
RIFLE          FAIR      79  24  13 NE6       30.11R
DELTA          FAIR      84  15   7 N10       30.07R
NUCLA          FAIR      79  14   8 NW6       30.16R
$$

COZ017>023-064>068-240400-
...SOUTHWEST COLORADO...

CITY           SKY/WX    TMP DP  RH WIND       PRES   REMARKS
DURANGO        FAIR      75  15  10 N6        30.16R
CORTEZ         FAIR      70  36  28 CALM      30.12R
PAGOSA SPRINGS FAIR      75   6   7 W12       30.25R
TELLURIDE      FAIR      69  15  12 NW6       30.42R
WOLF CREEK PAS FAIR      55  10  16 SW6       30.65R
$$

COZ009-010-012-014-032>034-037-058>063-240400-
...CENTRAL COLORADO...

CITY           SKY/WX    TMP DP  RH WIND       PRES   REMARKS
ASPEN          FAIR      63  29  27 S9        30.28R
BUENA VISTA    FAIR      53  44  72 SE15G24   30.33R
COPPER MTN     FAIR      54  23  30 NW15      30.61R
BERTHOUD PASS  FAIR      39  28  65 NW22G30   30.62R
COTTONWOOD PAS FAIR      63  19  19 NW3       30.44R
GUNNISON       FAIR      72  18  13 W10       30.26R
KREMMLING      NOT AVBL
LEADVILLE      FAIR      56  22  26 N9        30.44R
MONARCH PASS   FAIR      54  19  26 NW16      30.70R
SALIDA         FAIR      53  46  78 SE16G25   30.39R
SUNLIGHT       FAIR      54  18  24 NW6       30.55R
WILKERSON PASS FAIR      41  37  87 NE9       30.57R
$$

COZ069>075-240400-
...SAN LUIS VALLEY/SANGRE DE CRISTO MOUNTAINS...

CITY           SKY/WX    TMP DP  RH WIND       PRES   REMARKS
ALAMOSA        FAIR      69  24  18 N5        30.21R
DEL NORTE      FAIR      74  12   9 NW12G17   30.24R
LA VETA PASS   LGT RAIN  43  41  93 N15       30.57R VSB<1/4
SAGUACHE       FAIR      72  19  14 N12       30.26R
$$

COZ035-036-038>040-240400-
...NORTHERN COLORADO FRONT RANGE...

CITY           SKY/WX    TMP DP  RH WIND       PRES   REMARKS
DENVER INTL AP FAIR      56  46  69 W7        30.30R
DMNS CITY PARK   N/A     55  46  74 N3G9      30.31R
AURORA         PTCLDY    53  47  79 SW6       30.32R
FRONT RANGE AP MOCLDY    55  48  76 W8        30.31R
ERIE MUNI ARPT FAIR      57  48  72 CALM      30.29R
BOULDER MUN AP FAIR      57  46  67 CALM      30.30R
CENTENNIAL     FAIR      51  47  86 SW6       30.32R
BROOMFIELD     FAIR      55  46  71 S3        30.32R
FORT COLLINS   FAIR      56  46  69 S8        30.29R
LONGMONT       CLOUDY    60  47  63 CALM      30.31R
$$

COZ041-046-047-076>085-087-088-240400-
...PIKES PEAK/PALMER DIVIDE AND SOUTHERN FOOTHILLS...

CITY           SKY/WX    TMP DP  RH WIND       PRES   REMARKS
COLO. SPRINGS  CLOUDY    55  48  77 CALM      30.35R
A. F. ACADEMY  CLOUDY    53  47  82 CALM      30.35R
SCHRIEVER AFB  CLOUDY    55  46  72 W3        30.35R
CHEYENNE MTN   CLOUDY    52  46  82 NW3       30.33R
ELLICOTT       CLOUDY   N/A N/A N/A W3        30.33R
FALCON           N/A     53  45  75 S6        30.38R
FORT CARSON    CLOUDY    56  49  76 W6        30.32R
LIMON          CLOUDY    59  44  57 S5        30.30R
MONUMENT HILL  CLOUDY    46  45  93 W3        30.38R
CANON CITY     CLOUDY    57  54  88 S3        30.31R
WALSENBURG     CLOUDY    57  50  77 N9        30.33R
TRINIDAD       CLOUDY    62  47  57 NE9       30.28R
$$

COZ042>045-048>051-090-091-240400-
...NORTHEAST COLORADO...

CITY           SKY/WX    TMP DP  RH WIND       PRES   REMARKS
GREELEY ARPT   FAIR      61  48  62 SW7       30.28R
AKRON          FAIR      60  42  51 NW3       30.26R
BURLINGTON     FAIR      57  52  83 W7        30.24R
WRAY           FAIR      61  46  59 NW6       30.21R
YUMA           FAIR      61  37  41 CALM      30.23R
STERLING       NOT AVBL
HOLYOKE        NOT AVBL
FORT MORGAN    CLOUDY    62  48  59 SW5       30.27R
$$

COZ086-089-092>099-240400-
...SOUTHEAST COLORADO...

CITY           SKY/WX    TMP DP  RH WIND       PRES   REMARKS
PUEBLO         CLOUDY    63  49  60 NE6       30.27R
LA JUNTA       CLOUDY    68  45  43 E6        30.23R
LAMAR          CLOUDY    68  46  45 NE7       30.20R
SPRINGFIELD      N/A     60  47  61 E9        30.23R
$$



USA.gov is the U.S. government's official web portal to all federal, state and local government web resources and services.